全球星 M054星 (GLOBALSTAR M054)

导读

GLOBALSTAR M054是美国全球星(Globalstar)星座旗下的低轨通信卫星,于1999年8月17日发射入轨。作为全球星系统的组成部分,它运行在约1414公里高度的近圆轨道,参与构建覆盖全球南北纬70°以内区域的卫星移动通信网络,为偏远地区、海上及航空场景提供语音、数据通信服务,是早期全球个人卫星通信体系的关键组成单元。

Basic Information
目录编号:
25885
目录名称:
GLOBALSTAR M054
国际标识:
1999-043C
轨道中心:
EARTH
卫星名称:
全球星 M054星
卫星全名:
全球星 M054星 (GLOBALSTAR M054)
卫星状态:
在轨 (已飞行9842 天)
发射日期:
1999-08-17 UTC
国别 :
(GLOB)
星等 :
--
Orbit Information
数据来源 国际轨道数据 AOE轨道数据
星历时间 2026-07-28T11:14:32+0800
11小时前
查看轨道信息
2026-07-26T11:00:00+0800
2天前
查看轨道信息
半长轴 8343.109km 8343.113km
偏心率 0.0005065 0.0005027
轨道倾角 52.017° 52.017°
近地点辐角 158.451° 153.754°
升交点赤经 333.306° 338.123°
平近点角 13.177° 50.557°
近地点 1960.746km 1960.781km
远地点 1969.198km 1969.171km
周期 126.401分钟 126.401分钟
每日圈数 11.392288 11.392279
Detailed Information
固有亮度:
5
最大亮度:
7.9
平衡模式:
三轴稳定
覆盖范围:
全球
运营商:
全球星公司
运营商所在国:
美国
使用方式:
暂无
Satellite Introduction
全球星星座由48颗卫星加8颗备份星组成。这些卫星分布在8个倾角为52度的圆形轨道平面上,每个轨道平面6颗卫星,另有1 颗备用星。轨道高度约为1414km,传输时延和处理时延小于300ms,整个系统的覆盖区为南北纬70度以内的地区。该卫星已退役。
2D Orbit Map
3D Orbit Map
Orbit Altitude Analysis Chart
Orbit Inclination Analysis Chart
Orbit Comprehensive Analysis Chart
View Comprehensive Chart